Location: Rounton
(54.4000°N, 1.3500°W)
Time: 08:07:57
(UTC+00:00)

Tiros 1 despin weight - Pass Details

Date: 30 November 2021
Orbit: 592 x 641 km, 48.2° (Epoch: 19 January)

Event Time Altitude Azimuth Distance (km) Brightness Sun altitude
Rises 14:18:06 0° 201° (SSW) 2,820 ? 7.8°
Reaches altitude 10° 14:21:24 10° 176° (S) 1,918 ? 7.6°
Maximum altitude 14:23:35 14° 145° (SE) 1,692 ? 7.4°
Drops below altitude 10° 14:25:46 10° 115° (ESE) 1,921 ? 7.2°
Sets 14:29:04 0° 90° (E) 2,829 ? 6.9°
